This is the latest recevied weather packets stored in our database for station/object AB4CZ-1. If no packets are shown the sender has not sent any weather packets the latest 10 day(s).
| Time | Temp. | Humidity | Pressure | Rain* | Wind** | Luminosity | Snow |
|---|---|---|---|---|---|---|---|
| 1778182594 | 21.67° C | 79% | 1012.4 hPa | 0 mm | - | - | - |
| 1778182382 | 21.67° C | 80% | 1012.2 hPa | 0 mm | - | - | - |
| 1778182300 | 21.67° C | 80% | 1012.2 hPa | 0 mm | - | - | - |
| 1778181696 | 21.11° C | 79% | 1012.2 hPa | 0 mm | - | - | - |
| 1778181393 | 21.67° C | 78% | 1012.2 hPa | 0 mm | - | - | - |
| 1778181381 | 21.67° C | 81% | 1013.2 hPa | 0 mm | - | - | - |
| 1778181093 | 21.67° C | 81% | 1013.2 hPa | 0 mm | - | - | - |
| 1778180496 | 21.11° C | 82% | 1013.5 hPa | 0 mm | - | - | - |
| 1778179593 | 20.56° C | 85% | 1013.6 hPa | 0 mm | - | - | - |
| 1778179294 | 20° C | 85% | 1013.7 hPa | 0 mm | - | - | - |
| 1778178994 | 20.56° C | 83% | 1013.8 hPa | 0 mm | - | - | - |
| 1778178761 | 20.56° C | 83% | 1013.7 hPa | 0 mm | - | - | - |
| 1778178707 | 20.56° C | 83% | 1013.7 hPa | 0 mm | - | - | - |
| 1778178394 | 20.56° C | 85% | 1013.6 hPa | 0 mm | - | - | - |
| 1778178094 | 20.56° C | 86% | 1013.5 hPa | 0 mm | - | - | - |
| 1778177493 | 20.56° C | 86% | 1013.5 hPa | 0 mm | - | - | - |
| 1778177249 | 20.56° C | 88% | 1013.6 hPa | 0 mm | - | - | - |
| 1778177212 | 20.56° C | 88% | 1013.6 hPa | 0 mm | - | - | - |
| 1778176893 | 20.56° C | 88% | 1013.5 hPa | 0 mm | - | - | - |
| 1778176650 | 20.56° C | 88% | 1013.7 hPa | 0 mm | - | - | - |
| 1778176604 | 20.56° C | 88% | 1013.7 hPa | 0 mm | - | - | - |
| 1778176337 | 20.56° C | 88% | 1013.7 hPa | 0 mm | - | - | - |
| 1778176294 | 20.56° C | 88% | 1013.7 hPa | 0 mm | - | - | - |
| 1778175993 | 20.56° C | 88% | 1013.6 hPa | 0 mm | - | - | - |
| 1778175694 | 20.56° C | 88% | 1013.6 hPa | 0 mm | - | - | - |
* Rain latest hour (hover to see other rain measurements)
** Current wind speed in m/s (hover to see current wind gust speed)